Hayward, WI

2:55 AM CST on December 07, 2016 (GMT -0600)
Sawyer County

Weather History for KHYR - March, 2014

Change the Weather History Date:

Sunday, March 23, 2014

  Actual Average Record
Temperature  
Mean Temperature 4 °F -  
Max Temperature 19 °F 52 °F 64 °F (2007)
Min Temperature -11 °F 20 °F -11 °F (2014)
Degree Days  
Heating Degree Days 61    
Moisture  
Dew Point -6 °F    
Average Humidity 63    
Maximum Humidity 80    
Minimum Humidity 40    
Precipitation  
Precipitation 0.00 in - - ()
Sea Level Pressure  
Sea Level Pressure 30.47 in    
Wind  
Wind Speed 2 mph (West)    
Max Wind Speed 8 mph    
Max Gust Speed -    
Visibility 10 miles    
Events      
Averages and records for this station are not official NWS values.
T = Trace of Precipitation, MM = Missing Value Source: NWS Daily Summary

Daily Weather History Graph

Daily Weather History Graph

Search for Another Location

Airport or City:

Trip Planner

Search our weather history database for the weather conditions in past years. The results will help you decide how hot, cold, wet, or windy it might be!

Date:

Astronomy

Mar. 23, 2014 Rise Set
Actual Time 7:02 AM CDT 7:22 PM CDT
Civil Twilight 6:33 AM CDT 7:52 PM CDT
Nautical Twilight 5:57 AM CDT 8:27 PM CDT
Astronomical Twilight 5:21 AM CDT 9:04 PM CDT
Moon 1:55 AM CDT (3/23) 11:28 AM CDT (3/23)
Length of Visible Light 13h 19m
Length of Day
12h 19m
Waning Gibbous, 54% of the Moon is Illuminated
Mar 23
Waning Gibbous
Mar 23
Last Quarter
Mar 30
New
Apr 7
First Quarter
Apr 15
Full

Hourly Weather History & Observations

Time (CDT) Temp. Windchill Dew Point Humidity Pressure Visibility Wind Dir Wind Speed Gust Speed Precip Events Conditions
12:53 AM 6.1 °F -0.9 °F -2.0 °F 69% 30.51 in 10.0 mi Variable 3.5 mph - N/A   Clear
1:53 AM 3.9 °F - -2.9 °F 73% 30.52 in 10.0 mi Calm Calm - N/A   Clear
2:53 AM -4.0 °F - -9.9 °F 76% 30.52 in 10.0 mi Calm Calm - N/A   Clear
3:53 AM -6.0 °F -14.7 °F -13.0 °F 72% 30.52 in 10.0 mi South 3.5 mph - N/A   Clear
4:25 AM -8.0 °F - -13.0 °F 79% 30.42 in 10.0 mi Calm Calm - N/A   Partly Cloudy
4:53 AM -9.0 °F - -14.1 °F 79% 30.53 in 10.0 mi Calm Calm - N/A   Clear
5:53 AM -9.9 °F - -16.1 °F 74% 30.52 in 10.0 mi Calm Calm - N/A   Clear
6:53 AM -11.0 °F - -18.9 °F 68% 30.53 in 10.0 mi Calm Calm - N/A   Clear
7:53 AM -9.0 °F - -15.0 °F 75% 30.54 in 10.0 mi Calm Calm - N/A   Clear
8:53 AM 1.0 °F -6.7 °F -4.0 °F 79% 30.53 in 10.0 mi WSW 3.5 mph - N/A   Clear
9:53 AM 3.9 °F - -2.9 °F 73% 30.54 in 10.0 mi Calm Calm - N/A   Clear
10:53 AM 9.0 °F 2.4 °F -4.0 °F 56% 30.53 in 10.0 mi Variable 3.5 mph - N/A   Clear
11:53 AM 12.0 °F 2.7 °F -4.0 °F 49% 30.51 in 10.0 mi Variable 5.8 mph - N/A   Clear
12:53 PM 15.1 °F 5.2 °F -2.9 °F 45% 30.49 in 10.0 mi Variable 6.9 mph - N/A   Clear
1:53 PM 16.0 °F 5.3 °F -2.9 °F 43% 30.47 in 10.0 mi West 8.1 mph - N/A   Partly Cloudy
2:53 PM 18.0 °F 7.7 °F -2.0 °F 41% 30.46 in 10.0 mi West 8.1 mph - N/A   Mostly Cloudy
3:53 PM 18.0 °F 7.7 °F -2.0 °F 41% 30.44 in 10.0 mi West 8.1 mph - N/A   Partly Cloudy
4:53 PM 19.0 °F 10.0 °F -0.9 °F 42% 30.43 in 10.0 mi Variable 6.9 mph - N/A   Scattered Clouds
5:53 PM 19.0 °F 12.3 °F -2.0 °F 40% 30.42 in 10.0 mi WNW 4.6 mph - N/A   Partly Cloudy
6:53 PM 17.1 °F 10.0 °F -0.0 °F 47% 30.41 in 10.0 mi West 4.6 mph - N/A   Clear
7:53 PM 10.9 °F - -0.0 °F 61% 30.41 in 10.0 mi Calm Calm - N/A   Clear
8:53 PM 3.0 °F - -2.0 °F 80% 30.41 in 10.0 mi Calm Calm - N/A   Clear
9:53 PM 1.0 °F - -5.1 °F 75% 30.41 in 10.0 mi Calm Calm - N/A   Clear
10:53 PM -0.9 °F - -7.1 °F 75% 30.40 in 10.0 mi Calm Calm - N/A   Clear
11:53 PM -2.9 °F - -9.9 °F 72% 30.40 in 10.0 mi Calm Calm - N/A   Clear